Regional Weather Roundup
Issued by NWS

Home | Current Version | Previous Version | Text Only | Print | Product List | Glossary Off
Versions: 1 2 3 4 5 6 7 8 9 10 11 12 13 14 15 16 17 18 19 20 21 22 23 24 25 26 27 28 29 30 31 32 33 34 35 36 37 38 39 40 41 42 43 44 45 46 47 48 49 50

000
ASUS43 KLMK 110302
RWRKY
KENTUCKY REGIONAL WEATHER ROUNDUP
NATIONAL WEATHER SERVICE LOUISVILLE KY
1000 PM EST SUN DEC 10 2017

NOTE "FAIR" INDICATES FEW OR NO CLOUDS BELOW 12,000 FEET
WITH NO SIGNIFICANT WEATHER AND/OR OBSTRUCTIONS TO VISIBILITY.

KYZ001>023-026-027-061>063-070>075-110400-
WESTERN AND SOUTH CENTRAL KENTUCKY

CITY           SKY/WX    TMP DP  RH WIND       PRES   REMARKS
PADUCAH        CLEAR     40  29  64 W6        30.14R
HENDERSON      CLOUDY    31  28  89 W5        30.13R WCI  26
OWENSBORO      CLOUDY    34  24  67 CALM      30.13R
HOPKINSVILLE   CLEAR     38  23  55 SW12      30.13R WCI  30
BOWLING GREEN  CLOUDY    40  23  50 SW7       30.14R
GLASGOW        NOT AVBL
$$

KYZ024-025-028>034-038-045-046-053-110400-
NORTH CENTRAL KENTUCKY

CITY           SKY/WX    TMP DP  RH WIND       PRES   REMARKS
LOUISVILLE/SDF CLEAR     38  23  55 W9        30.08R WCI  31
LOUISVILLE/LOU CLEAR     36  23  59 SW7       30.09R WCI  30
FORT KNOX      CLOUDY    35  22  59 SW8       30.07S WCI  28
$$

KYZ035>037-039>044-047>052-055>060-089>105-110400-
NORTHEAST KENTUCKY

CITY           SKY/WX    TMP DP  RH WIND       PRES   REMARKS
LEXINGTON      CLEAR     31  19  61 SW9       30.07S WCI  23
COVINGTON      PTCLDY    33  21  61 SW7       30.03R WCI  27
FRANKFORT      CLEAR     33  18  53 SW9       30.06R WCI  25
$$

KYZ054-064>069-076>088-106>120-110400-
SOUTHEAST KENTUCKY

CITY           SKY/WX    TMP DP  RH WIND       PRES   REMARKS
JACKSON        CLEAR     33  17  51 VRB7      30.07S WCI  27
LONDON         CLEAR     34  17  50 S5        30.12R WCI  30
SOMERSET       NOT AVBL
MIDDLESBORO    PTCLDY    28  22  78 CALM      30.16R
MONTICELLO     CLEAR     38  23  55 W15       30.16R WCI  29
$$





USA.gov is the U.S. government's official web portal to all federal, state and local government web resources and services.